Year,Month,Day,Hour,Minute,Value (Times are PST for temperature in C)
2011,09,16,00,00,13.30
2011,09,16,00,01,13.30
2011,09,16,00,02,13.30
2011,09,16,00,03,13.30
2011,09,16,00,04,13.30
2011,09,16,00,05,13.30
2011,09,16,00,06,13.30
2011,09,16,00,07,13.30
2011,09,16,00,08,13.30
2011,09,16,00,09,13.30
2011,09,16,00,10,13.30
2011,09,16,00,11,13.30
2011,09,16,00,12,13.30
2011,09,16,00,13,13.30
2011,09,16,00,14,13.30
2011,09,16,00,15,13.30
2011,09,16,00,16,13.30
2011,09,16,00,17,13.30
2011,09,16,00,18,13.30
2011,09,16,00,19,13.20
2011,09,16,00,20,13.20
2011,09,16,00,21,13.20
2011,09,16,00,22,13.20
2011,09,16,00,23,13.20
2011,09,16,00,24,13.20
2011,09,16,00,25,13.10
2011,09,16,00,26,13.10
2011,09,16,00,27,13.10
2011,09,16,00,28,13.10
2011,09,16,00,29,13.10
2011,09,16,00,30,13.10
2011,09,16,00,31,13.00
2011,09,16,00,32,13.00
2011,09,16,00,33,13.00
2011,09,16,00,34,13.00
2011,09,16,00,35,13.00
2011,09,16,00,36,13.00
2011,09,16,00,37,13.00
2011,09,16,00,38,13.00
2011,09,16,00,39,13.00
2011,09,16,00,40,13.00
2011,09,16,00,41,13.00
2011,09,16,00,42,13.00
2011,09,16,00,43,13.00
2011,09,16,00,44,13.00
2011,09,16,00,45,13.00
2011,09,16,00,46,13.00
2011,09,16,00,47,13.00
2011,09,16,00,48,13.00
2011,09,16,00,49,13.00
2011,09,16,00,50,13.00
2011,09,16,00,51,13.00
2011,09,16,00,52,13.00
2011,09,16,00,53,13.00
2011,09,16,00,54,13.00
2011,09,16,00,55,13.10
2011,09,16,00,56,13.10
2011,09,16,00,57,13.10
2011,09,16,00,58,13.10
2011,09,16,00,59,13.10
2011,09,16,01,00,13.10
2011,09,16,01,01,13.10
2011,09,16,01,02,13.10
2011,09,16,01,03,13.10
2011,09,16,01,04,13.10
2011,09,16,01,05,13.10
2011,09,16,01,06,13.10
2011,09,16,01,07,13.10
2011,09,16,01,08,13.10
2011,09,16,01,09,13.10
2011,09,16,01,10,13.10
2011,09,16,01,11,13.10
2011,09,16,01,12,13.00
2011,09,16,01,13,13.00
2011,09,16,01,14,13.00
2011,09,16,01,15,13.00
2011,09,16,01,16,13.00
2011,09,16,01,17,13.00
2011,09,16,01,18,13.00
2011,09,16,01,19,13.00
2011,09,16,01,20,13.00
2011,09,16,01,21,13.00
2011,09,16,01,22,13.00
2011,09,16,01,23,13.00
2011,09,16,01,24,13.00
2011,09,16,01,25,13.00
2011,09,16,01,26,13.00
2011,09,16,01,27,13.00
2011,09,16,01,28,13.00
2011,09,16,01,29,13.00
2011,09,16,01,30,13.10
2011,09,16,01,31,13.10
2011,09,16,01,32,13.10
2011,09,16,01,33,13.10
2011,09,16,01,34,13.10
2011,09,16,01,35,13.10
2011,09,16,01,36,13.10
2011,09,16,01,37,13.10
2011,09,16,01,38,13.10
2011,09,16,01,39,13.10
2011,09,16,01,40,13.10
2011,09,16,01,41,13.10
2011,09,16,01,42,13.10
2011,09,16,01,43,13.10
2011,09,16,01,44,13.10
2011,09,16,01,45,13.10
2011,09,16,01,46,13.10
2011,09,16,01,47,13.10
2011,09,16,01,48,13.10
2011,09,16,01,49,13.10
2011,09,16,01,50,13.10
2011,09,16,01,51,13.10
2011,09,16,01,52,13.10
2011,09,16,01,53,13.10
2011,09,16,01,54,13.10
2011,09,16,01,55,13.10
2011,09,16,01,56,13.10
2011,09,16,01,57,13.10
2011,09,16,01,58,13.10
2011,09,16,01,59,13.10
2011,09,16,02,00,13.10
2011,09,16,02,01,13.10
2011,09,16,02,02,13.10
2011,09,16,02,03,13.10
2011,09,16,02,04,13.00
2011,09,16,02,05,13.00
2011,09,16,02,06,13.00
2011,09,16,02,07,13.00
2011,09,16,02,08,13.00
2011,09,16,02,09,12.90
2011,09,16,02,10,12.90
2011,09,16,02,11,12.90
2011,09,16,02,12,12.90
2011,09,16,02,13,12.80
2011,09,16,02,14,12.80
2011,09,16,02,15,12.80
2011,09,16,02,16,12.80
2011,09,16,02,17,12.80
2011,09,16,02,18,12.80
2011,09,16,02,19,12.80
2011,09,16,02,20,12.80
2011,09,16,02,21,12.80
2011,09,16,02,22,12.80
2011,09,16,02,23,12.70
2011,09,16,02,24,12.70
2011,09,16,02,25,12.70
2011,09,16,02,26,12.70
2011,09,16,02,27,12.70
2011,09,16,02,28,12.70
2011,09,16,02,29,12.70
2011,09,16,02,30,12.70
2011,09,16,02,31,12.70
2011,09,16,02,32,12.60
2011,09,16,02,33,12.60
2011,09,16,02,34,12.60
2011,09,16,02,35,12.60
2011,09,16,02,36,12.60
2011,09,16,02,37,12.60
2011,09,16,02,38,12.60
2011,09,16,02,39,12.60
2011,09,16,02,40,12.50
2011,09,16,02,41,12.50
2011,09,16,02,42,12.50
2011,09,16,02,43,12.50
2011,09,16,02,44,12.50
2011,09,16,02,45,12.50
2011,09,16,02,46,12.40
2011,09,16,02,47,12.40
2011,09,16,02,48,12.40
2011,09,16,02,49,12.40
2011,09,16,02,50,12.40
2011,09,16,02,51,12.40
2011,09,16,02,52,12.40
2011,09,16,02,53,12.30
2011,09,16,02,54,12.30
2011,09,16,02,55,12.30
2011,09,16,02,56,12.30
2011,09,16,02,57,12.30
2011,09,16,02,58,12.30
2011,09,16,02,59,12.30
2011,09,16,03,00,12.30
2011,09,16,03,01,12.20
2011,09,16,03,02,12.20
2011,09,16,03,03,12.20
2011,09,16,03,04,12.20
2011,09,16,03,05,12.20
2011,09,16,03,06,12.20
2011,09,16,03,07,12.20
2011,09,16,03,08,12.10
2011,09,16,03,09,12.10
2011,09,16,03,10,12.10
2011,09,16,03,11,12.10
2011,09,16,03,12,12.10
2011,09,16,03,13,12.10
2011,09,16,03,14,12.00
2011,09,16,03,15,12.00
2011,09,16,03,16,12.00
2011,09,16,03,17,12.00
2011,09,16,03,18,12.00
2011,09,16,03,19,12.00
2011,09,16,03,20,12.00
2011,09,16,03,21,12.00
2011,09,16,03,22,12.00
2011,09,16,03,23,12.00
2011,09,16,03,24,12.00
2011,09,16,03,25,12.00
2011,09,16,03,26,12.00
2011,09,16,03,27,12.00
2011,09,16,03,28,12.00
2011,09,16,03,29,12.00
2011,09,16,03,30,12.00
2011,09,16,03,31,12.00
2011,09,16,03,32,12.00
2011,09,16,03,33,12.00
2011,09,16,03,34,12.00
2011,09,16,03,35,12.00
2011,09,16,03,36,12.00
2011,09,16,03,37,11.90
2011,09,16,03,38,11.90
2011,09,16,03,39,11.90
2011,09,16,03,40,11.90
2011,09,16,03,41,11.90
2011,09,16,03,42,11.90
2011,09,16,03,43,11.90
2011,09,16,03,44,11.90
2011,09,16,03,45,11.90
2011,09,16,03,46,12.00
2011,09,16,03,47,12.00
2011,09,16,03,48,12.00
2011,09,16,03,49,12.00
2011,09,16,03,50,12.00
2011,09,16,03,51,12.00
2011,09,16,03,52,12.00
2011,09,16,03,53,12.10
2011,09,16,03,54,12.10
2011,09,16,03,55,12.10
2011,09,16,03,56,12.10
2011,09,16,03,57,12.10
2011,09,16,03,58,12.10
2011,09,16,03,59,12.10
2011,09,16,04,00,12.10
2011,09,16,04,01,12.10
2011,09,16,04,02,12.10
2011,09,16,04,03,12.10
2011,09,16,04,04,12.10
2011,09,16,04,05,12.10
2011,09,16,04,06,12.10
2011,09,16,04,07,12.00
2011,09,16,04,08,12.00
2011,09,16,04,09,12.00
2011,09,16,04,10,12.00
2011,09,16,04,11,12.00
2011,09,16,04,12,12.00
2011,09,16,04,13,12.10
2011,09,16,04,14,12.10
2011,09,16,04,15,12.10
2011,09,16,04,16,12.10
2011,09,16,04,17,12.10
2011,09,16,04,18,12.10
2011,09,16,04,19,12.10
2011,09,16,04,20,12.10
2011,09,16,04,21,12.10
2011,09,16,04,22,12.10
2011,09,16,04,23,12.10
2011,09,16,04,24,12.10
2011,09,16,04,25,12.10
2011,09,16,04,26,12.10
2011,09,16,04,27,12.00
2011,09,16,04,28,12.00
2011,09,16,04,29,12.00
2011,09,16,04,30,12.00
2011,09,16,04,31,12.00
2011,09,16,04,32,11.90
2011,09,16,04,33,11.90
2011,09,16,04,34,11.90
2011,09,16,04,35,11.90
2011,09,16,04,36,11.80
2011,09,16,04,37,11.80
2011,09,16,04,38,11.80
2011,09,16,04,39,11.80
2011,09,16,04,40,11.80
2011,09,16,04,41,11.80
2011,09,16,04,42,11.80
2011,09,16,04,43,11.80
2011,09,16,04,44,11.80
2011,09,16,04,45,11.80
2011,09,16,04,46,11.80
2011,09,16,04,47,11.80
2011,09,16,04,48,11.80
2011,09,16,04,49,11.80
2011,09,16,04,50,11.80
2011,09,16,04,51,11.80
2011,09,16,04,52,11.80
2011,09,16,04,53,11.80
2011,09,16,04,54,11.80
2011,09,16,04,55,11.80
2011,09,16,04,56,11.80
2011,09,16,04,57,11.80
2011,09,16,04,58,11.80
2011,09,16,04,59,11.80
2011,09,16,05,00,11.80
2011,09,16,05,01,11.80
2011,09,16,05,02,11.80
2011,09,16,05,03,11.80
2011,09,16,05,04,11.80
2011,09,16,05,05,11.80
2011,09,16,05,06,11.80
2011,09,16,05,07,11.80
2011,09,16,05,08,11.80
2011,09,16,05,09,11.80
2011,09,16,05,10,11.80
2011,09,16,05,11,11.80
2011,09,16,05,12,11.80
2011,09,16,05,13,11.80
2011,09,16,05,14,11.80
2011,09,16,05,15,11.80
2011,09,16,05,16,11.80
2011,09,16,05,17,11.80
2011,09,16,05,18,11.80
2011,09,16,05,19,11.80
2011,09,16,05,20,11.70
2011,09,16,05,21,11.70
2011,09,16,05,22,11.70
2011,09,16,05,23,11.70
2011,09,16,05,24,11.70
2011,09,16,05,25,11.60
2011,09,16,05,26,11.60
2011,09,16,05,27,11.60
2011,09,16,05,28,11.60
2011,09,16,05,29,11.60
2011,09,16,05,30,11.60
2011,09,16,05,31,11.60
2011,09,16,05,32,11.60
2011,09,16,05,33,11.60
2011,09,16,05,34,11.60
2011,09,16,05,35,11.60
2011,09,16,05,36,11.60
2011,09,16,05,37,11.60
2011,09,16,05,38,11.60
2011,09,16,05,39,11.60
2011,09,16,05,40,11.60
2011,09,16,05,41,11.50
2011,09,16,05,42,11.50
2011,09,16,05,43,11.60
2011,09,16,05,44,11.60
2011,09,16,05,45,11.60
2011,09,16,05,46,11.60
2011,09,16,05,47,11.60
2011,09,16,05,48,11.60
2011,09,16,05,49,11.60
2011,09,16,05,50,11.60
2011,09,16,05,51,11.60
2011,09,16,05,52,11.60
2011,09,16,05,53,11.60
2011,09,16,05,54,11.60
2011,09,16,05,55,11.60
2011,09,16,05,56,11.60
2011,09,16,05,57,11.60
2011,09,16,05,58,11.60
2011,09,16,05,59,11.60
2011,09,16,06,00,11.60
2011,09,16,06,01,11.60
2011,09,16,06,02,11.60
2011,09,16,06,03,11.60
2011,09,16,06,04,11.60
2011,09,16,06,05,11.60
2011,09,16,06,06,11.60
2011,09,16,06,07,11.60
2011,09,16,06,08,11.60
2011,09,16,06,09,11.60
2011,09,16,06,10,11.60
2011,09,16,06,11,11.60
2011,09,16,06,12,11.60
2011,09,16,06,13,11.60
2011,09,16,06,14,11.60
2011,09,16,06,15,11.60
2011,09,16,06,16,11.60
2011,09,16,06,17,11.60
2011,09,16,06,18,11.60
2011,09,16,06,19,11.60
2011,09,16,06,20,11.60
2011,09,16,06,21,11.60
2011,09,16,06,22,11.60
2011,09,16,06,23,11.60
2011,09,16,06,24,11.60
2011,09,16,06,25,11.60
2011,09,16,06,26,11.60
2011,09,16,06,27,11.60
2011,09,16,06,28,11.60
2011,09,16,06,29,11.60
2011,09,16,06,30,11.60
2011,09,16,06,31,11.60
2011,09,16,06,32,11.60
2011,09,16,06,33,11.50
2011,09,16,06,34,11.40
2011,09,16,06,35,11.40
2011,09,16,06,36,11.40
2011,09,16,06,37,11.40
2011,09,16,06,38,11.40
2011,09,16,06,39,11.40
2011,09,16,06,40,11.40
2011,09,16,06,41,11.50
2011,09,16,06,42,11.60
2011,09,16,06,43,11.60
2011,09,16,06,44,11.60
2011,09,16,06,45,11.60
2011,09,16,06,46,11.60
2011,09,16,06,47,11.60
2011,09,16,06,48,11.60
2011,09,16,06,49,11.60
2011,09,16,06,50,11.60
2011,09,16,06,51,11.60
2011,09,16,06,52,11.60
2011,09,16,06,53,11.60
2011,09,16,06,54,11.60
2011,09,16,06,55,11.50
2011,09,16,06,56,11.40
2011,09,16,06,57,11.40
2011,09,16,06,58,11.40
2011,09,16,06,59,11.40
2011,09,16,07,00,11.40
2011,09,16,07,01,11.40
2011,09,16,07,02,11.40
2011,09,16,07,03,11.40
2011,09,16,07,04,11.30
2011,09,16,07,05,11.30
2011,09,16,07,06,11.30
2011,09,16,07,07,11.30
2011,09,16,07,08,11.30
2011,09,16,07,09,11.20
2011,09,16,07,10,11.20
2011,09,16,07,11,11.20
2011,09,16,07,12,11.20
2011,09,16,07,13,11.20
2011,09,16,07,14,11.20
2011,09,16,07,15,11.20
2011,09,16,07,16,11.20
2011,09,16,07,17,11.20
2011,09,16,07,18,11.20
2011,09,16,07,19,11.20
2011,09,16,07,20,11.20
2011,09,16,07,21,11.20
2011,09,16,07,22,11.20
2011,09,16,07,23,11.20
2011,09,16,07,24,11.20
2011,09,16,07,25,11.20
2011,09,16,07,26,11.20
2011,09,16,07,27,11.20
2011,09,16,07,28,11.20
2011,09,16,07,29,11.30
2011,09,16,07,30,11.30
2011,09,16,07,31,11.30
2011,09,16,07,32,11.30
2011,09,16,07,33,11.30
2011,09,16,07,34,11.30
2011,09,16,07,35,11.40
2011,09,16,07,36,11.40
2011,09,16,07,37,11.40
2011,09,16,07,38,11.40
2011,09,16,07,39,11.40
2011,09,16,07,40,11.40
2011,09,16,07,41,11.40
2011,09,16,07,42,11.40
2011,09,16,07,43,11.40
2011,09,16,07,44,11.40
2011,09,16,07,45,11.50
2011,09,16,07,46,11.60
2011,09,16,07,47,11.60
2011,09,16,07,48,11.60
2011,09,16,07,49,11.60
2011,09,16,07,50,11.60
2011,09,16,07,51,11.60
2011,09,16,07,52,11.70
2011,09,16,07,53,11.70
2011,09,16,07,54,11.70
2011,09,16,07,55,11.80
2011,09,16,07,56,11.80
2011,09,16,07,57,11.80
2011,09,16,07,58,11.80
2011,09,16,07,59,11.80
2011,09,16,08,00,11.80
2011,09,16,08,01,11.80
2011,09,16,08,02,11.80
2011,09,16,08,03,11.80
2011,09,16,08,04,11.80
2011,09,16,08,05,11.80
2011,09,16,08,06,11.80
2011,09,16,08,07,11.80
2011,09,16,08,08,11.80
2011,09,16,08,09,11.90
2011,09,16,08,10,11.90
2011,09,16,08,11,11.90
2011,09,16,08,12,11.90
2011,09,16,08,13,12.00
2011,09,16,08,14,12.00
2011,09,16,08,15,12.10
2011,09,16,08,16,12.10
2011,09,16,08,17,12.10
2011,09,16,08,18,12.20
2011,09,16,08,19,12.20
2011,09,16,08,20,12.20
2011,09,16,08,21,12.30
2011,09,16,08,22,12.30
2011,09,16,08,23,12.30
2011,09,16,08,24,12.30
2011,09,16,08,25,12.40
2011,09,16,08,26,12.40
2011,09,16,08,27,12.50
2011,09,16,08,28,12.50
2011,09,16,08,29,12.50
2011,09,16,08,30,12.60
2011,09,16,08,31,12.60
2011,09,16,08,32,12.60
2011,09,16,08,33,12.60
2011,09,16,08,34,12.60
2011,09,16,08,35,12.70
2011,09,16,08,36,12.70
2011,09,16,08,37,12.70
2011,09,16,08,38,12.70
2011,09,16,08,39,12.70
2011,09,16,08,40,12.70
2011,09,16,08,41,12.70
2011,09,16,08,42,12.70
2011,09,16,08,43,12.70
2011,09,16,08,44,12.70
2011,09,16,08,45,12.70
2011,09,16,08,46,12.80
2011,09,16,08,47,12.80
2011,09,16,08,48,12.80
2011,09,16,08,49,12.80
2011,09,16,08,50,12.80
2011,09,16,08,51,12.80
2011,09,16,08,52,12.80
2011,09,16,08,53,12.90
2011,09,16,08,54,12.90
2011,09,16,08,55,12.90
2011,09,16,08,56,12.90
2011,09,16,08,57,13.00
2011,09,16,08,58,13.00
2011,09,16,08,59,13.00
2011,09,16,09,00,13.00
2011,09,16,09,01,13.10
2011,09,16,09,02,13.10
2011,09,16,09,03,13.10
2011,09,16,09,04,13.10
2011,09,16,09,05,13.20
2011,09,16,09,06,13.20
2011,09,16,09,07,13.20
2011,09,16,09,08,13.20
2011,09,16,09,09,13.20
2011,09,16,09,10,13.20
2011,09,16,09,11,13.10
2011,09,16,09,12,13.10
2011,09,16,09,13,13.10
2011,09,16,09,14,13.10
2011,09,16,09,15,13.00
2011,09,16,09,16,13.10
2011,09,16,09,17,13.10
2011,09,16,09,18,13.00
2011,09,16,09,19,13.00
2011,09,16,09,20,13.00
2011,09,16,09,21,12.90
2011,09,16,09,22,12.90
2011,09,16,09,23,12.90
2011,09,16,09,24,12.90
2011,09,16,09,25,12.90
2011,09,16,09,26,12.90
2011,09,16,09,27,12.90
2011,09,16,09,28,12.90
2011,09,16,09,29,12.90
2011,09,16,09,30,12.90
2011,09,16,09,31,12.90
2011,09,16,09,32,13.00
2011,09,16,09,33,13.00
2011,09,16,09,34,13.00
2011,09,16,09,35,13.10
2011,09,16,09,36,13.10
2011,09,16,09,37,13.10
2011,09,16,09,38,13.20
2011,09,16,09,39,13.20
2011,09,16,09,40,13.20
2011,09,16,09,41,13.30
2011,09,16,09,42,13.30
2011,09,16,09,43,13.30
2011,09,16,09,44,13.40
2011,09,16,09,45,13.50
2011,09,16,09,46,13.60
2011,09,16,09,47,13.60
2011,09,16,09,48,13.70
2011,09,16,09,49,13.80
2011,09,16,09,50,13.80
2011,09,16,09,51,13.90
2011,09,16,09,52,14.00
2011,09,16,09,53,14.00
2011,09,16,09,54,14.10
2011,09,16,09,55,14.10
2011,09,16,09,56,14.00
2011,09,16,09,57,14.00
2011,09,16,09,58,14.10
2011,09,16,09,59,14.10
2011,09,16,10,00,14.20
2011,09,16,10,01,14.20
2011,09,16,10,02,14.20
2011,09,16,10,03,14.20
2011,09,16,10,04,14.30
2011,09,16,10,05,14.30
2011,09,16,10,06,14.20
2011,09,16,10,07,14.20
2011,09,16,10,08,14.20
2011,09,16,10,09,14.20
2011,09,16,10,10,14.20
2011,09,16,10,11,14.20
2011,09,16,10,12,14.20
2011,09,16,10,13,14.20
2011,09,16,10,14,14.20
2011,09,16,10,15,14.20
2011,09,16,10,16,14.20
2011,09,16,10,17,14.20
2011,09,16,10,18,14.20
2011,09,16,10,19,14.20
2011,09,16,10,20,14.20
2011,09,16,10,21,14.20
2011,09,16,10,22,14.30
2011,09,16,10,23,14.30
2011,09,16,10,24,14.40
2011,09,16,10,25,14.40
2011,09,16,10,26,14.30
2011,09,16,10,27,14.30
2011,09,16,10,28,14.30
2011,09,16,10,29,14.30
2011,09,16,10,30,14.30
2011,09,16,10,31,14.40
2011,09,16,10,32,14.40
2011,09,16,10,33,14.50
2011,09,16,10,34,14.60
2011,09,16,10,35,14.60
2011,09,16,10,36,14.60
2011,09,16,10,37,14.60
2011,09,16,10,38,14.60
2011,09,16,10,39,14.70
2011,09,16,10,40,14.70
2011,09,16,10,41,14.70
2011,09,16,10,42,14.70
2011,09,16,10,43,14.70
2011,09,16,10,44,14.70
2011,09,16,10,45,14.70
2011,09,16,10,46,14.80
2011,09,16,10,47,14.70
2011,09,16,10,48,14.70
2011,09,16,10,49,14.70
2011,09,16,10,50,14.70
2011,09,16,10,51,14.80
2011,09,16,10,52,14.80
2011,09,16,10,53,14.80
2011,09,16,10,54,14.90
2011,09,16,10,55,15.00
2011,09,16,10,56,15.10
2011,09,16,10,57,15.20
2011,09,16,10,58,15.30
2011,09,16,10,59,15.30
2011,09,16,11,00,15.30
2011,09,16,11,01,15.30
2011,09,16,11,02,15.40
2011,09,16,11,03,15.40
2011,09,16,11,04,15.50
2011,09,16,11,05,15.50
2011,09,16,11,06,15.50
2011,09,16,11,07,15.50
2011,09,16,11,08,15.50
2011,09,16,11,09,15.50
2011,09,16,11,10,15.50
2011,09,16,11,11,15.50
2011,09,16,11,12,15.60
2011,09,16,11,13,15.60
2011,09,16,11,14,15.60
2011,09,16,11,15,15.60
2011,09,16,11,16,15.50
2011,09,16,11,17,15.50
2011,09,16,11,18,15.50
2011,09,16,11,19,15.60
2011,09,16,11,20,15.60
2011,09,16,11,21,15.70
2011,09,16,11,22,15.70
2011,09,16,11,23,15.70
2011,09,16,11,24,15.80
2011,09,16,11,25,15.80
2011,09,16,11,26,15.90
2011,09,16,11,27,15.90
2011,09,16,11,28,15.90
2011,09,16,11,29,15.90
2011,09,16,11,30,15.90
2011,09,16,11,31,15.90
2011,09,16,11,32,16.00
2011,09,16,11,33,16.10
2011,09,16,11,34,16.00
2011,09,16,11,35,16.00
2011,09,16,11,36,16.10
2011,09,16,11,37,16.10
2011,09,16,11,38,16.10
2011,09,16,11,39,16.00
2011,09,16,11,40,15.90
2011,09,16,11,41,15.80
2011,09,16,11,42,15.80
2011,09,16,11,43,15.90
2011,09,16,11,44,16.00
2011,09,16,11,45,16.10
2011,09,16,11,46,16.10
2011,09,16,11,47,16.10
2011,09,16,11,48,16.10
2011,09,16,11,49,16.10
2011,09,16,11,50,16.10
2011,09,16,11,51,16.10
2011,09,16,11,52,16.10
2011,09,16,11,53,16.00
2011,09,16,11,54,15.90
2011,09,16,11,55,15.80
2011,09,16,11,56,15.80
2011,09,16,11,57,15.80
2011,09,16,11,58,15.80
2011,09,16,11,59,15.80
2011,09,16,12,00,15.80
2011,09,16,12,01,15.80
2011,09,16,12,02,15.80
2011,09,16,12,03,15.70
2011,09,16,12,04,15.70
2011,09,16,12,05,15.70
2011,09,16,12,06,15.70
2011,09,16,12,07,15.80
2011,09,16,12,08,15.80
2011,09,16,12,09,15.90
2011,09,16,12,10,15.90
2011,09,16,12,11,16.00
2011,09,16,12,12,16.00
2011,09,16,12,13,15.90
2011,09,16,12,14,15.80
2011,09,16,12,15,15.80
2011,09,16,12,16,15.70
2011,09,16,12,17,15.60
2011,09,16,12,18,15.60
2011,09,16,12,19,15.70
2011,09,16,12,20,15.70
2011,09,16,12,21,15.70
2011,09,16,12,22,15.70
2011,09,16,12,23,15.60
2011,09,16,12,24,15.60
2011,09,16,12,25,15.60
2011,09,16,12,26,15.60
2011,09,16,12,27,15.60
2011,09,16,12,28,15.60
2011,09,16,12,29,15.70
2011,09,16,12,30,15.80
2011,09,16,12,31,15.80
2011,09,16,12,32,15.90
2011,09,16,12,33,16.00
2011,09,16,12,34,16.10
2011,09,16,12,35,16.30
2011,09,16,12,36,16.40
2011,09,16,12,37,16.40
2011,09,16,12,38,16.40
2011,09,16,12,39,16.40
2011,09,16,12,40,16.40
2011,09,16,12,41,16.40
2011,09,16,12,42,16.40
2011,09,16,12,43,16.30
2011,09,16,12,44,16.30
2011,09,16,12,45,16.30
2011,09,16,12,46,16.40
2011,09,16,12,47,16.40
2011,09,16,12,48,16.40
2011,09,16,12,49,16.40
2011,09,16,12,50,16.40
2011,09,16,12,51,16.40
2011,09,16,12,52,16.30
2011,09,16,12,53,16.30
2011,09,16,12,54,16.40
2011,09,16,12,55,16.40
2011,09,16,12,56,16.40
2011,09,16,12,57,16.30
2011,09,16,12,58,16.20
2011,09,16,12,59,16.10
2011,09,16,13,00,16.10
2011,09,16,13,01,16.10
2011,09,16,13,02,16.10
2011,09,16,13,03,16.10
2011,09,16,13,04,16.20
2011,09,16,13,05,16.20
2011,09,16,13,06,16.10
2011,09,16,13,07,16.10
2011,09,16,13,08,16.00
2011,09,16,13,09,15.90
2011,09,16,13,10,15.80
2011,09,16,13,11,15.80
2011,09,16,13,12,15.80
2011,09,16,13,13,15.80
2011,09,16,13,14,15.80
2011,09,16,13,15,15.80
2011,09,16,13,16,15.80
2011,09,16,13,17,15.80
2011,09,16,13,18,15.80
2011,09,16,13,19,15.80
2011,09,16,13,20,15.80
2011,09,16,13,21,15.80
2011,09,16,13,22,15.80
2011,09,16,13,23,15.70
2011,09,16,13,24,15.70
2011,09,16,13,25,15.70
2011,09,16,13,26,15.70
2011,09,16,13,27,15.70
2011,09,16,13,28,15.80
2011,09,16,13,29,16.00
2011,09,16,13,30,16.10
2011,09,16,13,31,16.10
2011,09,16,13,32,16.10
2011,09,16,13,33,16.10
2011,09,16,13,34,16.20
2011,09,16,13,35,16.10
2011,09,16,13,36,16.10
2011,09,16,13,37,15.90
2011,09,16,13,38,15.80
2011,09,16,13,39,15.60
2011,09,16,13,40,15.60
2011,09,16,13,41,15.50
2011,09,16,13,42,15.40
2011,09,16,13,43,15.40
2011,09,16,13,44,15.40
2011,09,16,13,45,15.30
2011,09,16,13,46,15.30
2011,09,16,13,47,15.30
2011,09,16,13,48,15.20
2011,09,16,13,49,15.20
2011,09,16,13,50,15.20
2011,09,16,13,51,15.20
2011,09,16,13,52,15.20
2011,09,16,13,53,15.20
2011,09,16,13,54,15.20
2011,09,16,13,55,15.20
2011,09,16,13,56,15.20
2011,09,16,13,57,15.20
2011,09,16,13,58,15.20
2011,09,16,13,59,15.20
2011,09,16,14,00,15.20
2011,09,16,14,01,15.20
2011,09,16,14,02,15.20
2011,09,16,14,03,15.10
2011,09,16,14,04,15.10
2011,09,16,14,05,15.10
2011,09,16,14,06,15.20
2011,09,16,14,07,15.20
2011,09,16,14,08,15.20
2011,09,16,14,09,15.20
2011,09,16,14,10,15.20
2011,09,16,14,11,15.30
2011,09,16,14,12,15.40
2011,09,16,14,13,15.40
2011,09,16,14,14,15.50
2011,09,16,14,15,15.40
2011,09,16,14,16,15.40
2011,09,16,14,17,15.50
2011,09,16,14,18,15.50
2011,09,16,14,19,15.50
2011,09,16,14,20,15.60
2011,09,16,14,21,15.70
2011,09,16,14,22,15.70
2011,09,16,14,23,15.70
2011,09,16,14,24,15.80
2011,09,16,14,25,15.70
2011,09,16,14,26,15.80
2011,09,16,14,27,15.80
2011,09,16,14,28,15.80
2011,09,16,14,29,15.80
2011,09,16,14,30,15.70
2011,09,16,14,31,15.70
2011,09,16,14,32,15.70
2011,09,16,14,33,15.70
2011,09,16,14,34,15.80
2011,09,16,14,35,15.70
2011,09,16,14,36,15.60
2011,09,16,14,37,15.60
2011,09,16,14,38,15.60
2011,09,16,14,39,15.60
2011,09,16,14,40,15.60
2011,09,16,14,41,15.60
2011,09,16,14,42,15.60
2011,09,16,14,43,15.60
2011,09,16,14,44,15.70
2011,09,16,14,45,15.70
2011,09,16,14,46,15.70
2011,09,16,14,47,15.80
2011,09,16,14,48,15.80
2011,09,16,14,49,15.80
2011,09,16,14,50,15.80
2011,09,16,14,51,15.70
2011,09,16,14,52,15.70
2011,09,16,14,53,15.60
2011,09,16,14,54,15.60
2011,09,16,14,55,15.60
2011,09,16,14,56,15.60
2011,09,16,14,57,15.70
2011,09,16,14,58,15.80
2011,09,16,14,59,15.80
2011,09,16,15,00,15.70
2011,09,16,15,01,15.60
2011,09,16,15,02,15.60
2011,09,16,15,03,15.70
2011,09,16,15,04,15.70
2011,09,16,15,05,15.80
2011,09,16,15,06,15.80
2011,09,16,15,07,15.80
2011,09,16,15,08,15.80
2011,09,16,15,09,15.80
2011,09,16,15,10,15.80
2011,09,16,15,11,15.80
2011,09,16,15,12,15.80
2011,09,16,15,13,15.70
2011,09,16,15,14,15.70
2011,09,16,15,15,15.60
2011,09,16,15,16,15.60
2011,09,16,15,17,15.50
2011,09,16,15,18,15.50
2011,09,16,15,19,15.50
2011,09,16,15,20,15.50
2011,09,16,15,21,15.50
2011,09,16,15,22,15.60
2011,09,16,15,23,15.60
2011,09,16,15,24,15.70
2011,09,16,15,25,15.80
2011,09,16,15,26,16.00
2011,09,16,15,27,16.20
2011,09,16,15,28,16.30
2011,09,16,15,29,16.40
2011,09,16,15,30,16.60
2011,09,16,15,31,16.70
2011,09,16,15,32,16.80
2011,09,16,15,33,16.90
2011,09,16,15,34,16.90
2011,09,16,15,35,16.90
2011,09,16,15,36,17.00
2011,09,16,15,37,17.00
2011,09,16,15,38,17.10
2011,09,16,15,39,17.10
2011,09,16,15,40,17.20
2011,09,16,15,41,17.20
2011,09,16,15,42,17.30
2011,09,16,15,43,17.30
2011,09,16,15,44,17.30
2011,09,16,15,45,17.20
2011,09,16,15,46,17.10
2011,09,16,15,47,17.00
2011,09,16,15,48,17.00
2011,09,16,15,49,17.00
2011,09,16,15,50,17.00
2011,09,16,15,51,17.00
2011,09,16,15,52,17.10
2011,09,16,15,53,17.10
2011,09,16,15,54,17.20
2011,09,16,15,55,17.30
2011,09,16,15,56,17.30
2011,09,16,15,57,17.30
2011,09,16,15,58,17.30
2011,09,16,15,59,17.30
2011,09,16,16,00,17.30
2011,09,16,16,01,17.30
2011,09,16,16,02,17.30
2011,09,16,16,03,17.30
2011,09,16,16,04,17.30
2011,09,16,16,05,17.20
2011,09,16,16,06,17.20
2011,09,16,16,07,17.20
2011,09,16,16,08,17.10
2011,09,16,16,09,17.10
2011,09,16,16,10,17.10
2011,09,16,16,11,17.10
2011,09,16,16,12,17.10
2011,09,16,16,13,17.10
2011,09,16,16,14,17.20
2011,09,16,16,15,17.20
2011,09,16,16,16,17.20
2011,09,16,16,17,17.20
2011,09,16,16,18,17.20
2011,09,16,16,19,17.20
2011,09,16,16,20,17.30
2011,09,16,16,21,17.30
2011,09,16,16,22,17.30
2011,09,16,16,23,17.30
2011,09,16,16,24,17.20
2011,09,16,16,25,17.20
2011,09,16,16,26,17.20
2011,09,16,16,27,17.10
2011,09,16,16,28,17.10
2011,09,16,16,29,17.10
2011,09,16,16,30,17.10
2011,09,16,16,31,17.10
2011,09,16,16,32,17.20
2011,09,16,16,33,17.10
2011,09,16,16,34,17.10
2011,09,16,16,35,17.20
2011,09,16,16,36,17.20
2011,09,16,16,37,17.20
2011,09,16,16,38,17.20
2011,09,16,16,39,17.20
2011,09,16,16,40,17.30
2011,09,16,16,41,17.30
2011,09,16,16,42,17.30
2011,09,16,16,43,17.30
2011,09,16,16,44,17.30
2011,09,16,16,45,17.30
2011,09,16,16,46,17.30
2011,09,16,16,47,17.30
2011,09,16,16,48,17.30
2011,09,16,16,49,17.20
2011,09,16,16,50,17.20
2011,09,16,16,51,17.20
2011,09,16,16,52,17.20
2011,09,16,16,53,17.20
2011,09,16,16,54,17.20
2011,09,16,16,55,17.30
2011,09,16,16,56,17.30
2011,09,16,16,57,17.30
2011,09,16,16,58,17.30
2011,09,16,16,59,17.30
2011,09,16,17,00,17.20
2011,09,16,17,01,17.20
2011,09,16,17,02,17.20
2011,09,16,17,03,17.10
2011,09,16,17,04,17.10
2011,09,16,17,05,17.10
2011,09,16,17,06,17.10
2011,09,16,17,07,17.10
2011,09,16,17,08,17.10
2011,09,16,17,09,17.00
2011,09,16,17,10,17.00
2011,09,16,17,11,17.00
2011,09,16,17,12,16.90
2011,09,16,17,13,16.90
2011,09,16,17,14,16.90
2011,09,16,17,15,16.90
2011,09,16,17,16,16.90
2011,09,16,17,17,16.90
2011,09,16,17,18,16.80
2011,09,16,17,19,16.80